Location: Costa Valle Imagna
(45.8000°N, 9.5000°E)
Time: 17:29:11
(UTC+00:00)

SL-08 R/B - Pass Details

Date: 17 February 2020
Orbit: 943 x 1009 km, 83.0° (Epoch: 31 March)

Event Time Altitude Azimuth Distance (km) Brightness Sun altitude
Rises 05:38:00 0° 349° (N) 3,665 7.3 -8.4°
Reaches altitude 10° 05:40:33 10° 347° (NNW) 2,706 6.6 -7.9°
Maximum altitude 05:46:40 68° 266° (W) 1,022 4.5 -6.9°
Drops below altitude 10° 05:52:40 10° 185° (S) 2,657 6.9 -5.8°
Sets 05:55:09 0° 182° (S) 3,595 7.6 -5.4°
